This is the latest recevied weather packets stored in our database for station/object VK3BYD-3. If no packets are shown the sender has not sent any weather packets the latest 10 day(s).
| Time | Temp. | Humidity | Pressure | Rain* | Wind** | Luminosity | Snow |
|---|---|---|---|---|---|---|---|
| 1777526824 | 27.22° C | 45% | 1025.7 hPa | 0 mm | - | - | - |
| 1777525925 | 26.67° C | 45% | 1025.7 hPa | 0 mm | - | - | - |
| 1777525024 | 27.22° C | 45% | 1025.8 hPa | 0 mm | - | - | - |
| 1777524125 | 26.67° C | 45% | 1025.8 hPa | 0 mm | - | - | - |
| 1777523224 | 26.67° C | 47% | 1025.8 hPa | 0 mm | - | - | - |
| 1777522322 | 26.11° C | 47% | 1026.1 hPa | 0 mm | - | - | - |
| 1777521423 | 26.11° C | 46% | 1026.2 hPa | 0 mm | - | - | - |
| 1777520522 | 25.56° C | 48% | 1026.3 hPa | 0 mm | - | - | - |
| 1777519616 | 25.56° C | 48% | 1026.4 hPa | 0 mm | - | - | - |
| 1777518716 | 25° C | 50% | 1026.6 hPa | 0 mm | - | - | - |
| 1777517816 | 25° C | 49% | 1027 hPa | 0 mm | - | - | - |
| 1777516916 | 25° C | 50% | 1027.3 hPa | 0 mm | - | - | - |
| 1777516016 | 25° C | 50% | 1027.8 hPa | 0 mm | - | - | - |
| 1777515116 | 25° C | 50% | 1028 hPa | 0 mm | - | - | - |
| 1777514216 | 24.44° C | 51% | 1028.1 hPa | 0 mm | - | - | - |
| 1777513316 | 24.44° C | 50% | 1028.1 hPa | 0 mm | - | - | - |
| 1777512416 | 23.89° C | 52% | 1028.3 hPa | 0 mm | - | - | - |
| 1777511515 | 23.33° C | 53% | 1028.5 hPa | 0 mm | - | - | - |
| 1777510614 | 23.33° C | 53% | 1028.8 hPa | 0 mm | - | - | - |
| 1777509714 | 22.78° C | 54% | 1028.9 hPa | 0 mm | - | - | - |
| 1777508814 | 22.78° C | 56% | 1029 hPa | 0 mm | - | - | - |
| 1777507913 | 22.22° C | 57% | 1029.1 hPa | 0 mm | - | - | - |
| 1777507013 | 21.67° C | 59% | 1029.2 hPa | 0 mm | - | - | - |
| 1777506113 | 20.56° C | 62% | 1029.3 hPa | 0 mm | - | - | - |
| 1777505204 | 18.33° C | 71% | 1029.3 hPa | 0 mm | - | - | - |
* Rain latest hour (hover to see other rain measurements)
** Current wind speed in m/s (hover to see current wind gust speed)